Date,TemperatureHighF,TemperatureAvgF,TemperatureLowF,DewpointHighF,DewpointAvgF,DewpointLowF,HumidityHigh,HumidityAvg,HumidityLow,PressureMaxIn,PressureMinIn,WindSpeedMaxMPH,WindSpeedAvgMPH,GustSpeedMaxMPH,PrecipitationSumIn
2014-1-1,16.0,11.3,7.0,-99.9,-99.9,-99.9,0,0,100,0.00,40.00,0,-999,0,0.00
2014-1-2,10.0,4.6,-6.0,-99.9,-99.9,-99.9,0,0,100,0.00,40.00,0,-999,0,0.00
2014-1-3,36.0,18.9,2.0,-99.9,-99.9,-99.9,0,0,100,0.00,40.00,0,-999,0,0.00
2014-1-4,32.0,23.6,16.0,-99.9,-99.9,-99.9,0,0,100,0.00,40.00,0,-999,0,0.00
2014-1-5,12.0,4.8,-5.0,-99.9,-99.9,-99.9,0,0,100,0.00,40.00,0,-999,0,0.00
2014-1-6,5.0,-3.4,-9.0,-99.9,-99.9,-99.9,0,0,100,0.00,40.00,0,-999,0,0.00
2014-1-7,32.0,17.1,-6.0,-99.9,-99.9,-99.9,0,0,100,0.00,40.00,0,-999,0,0.00
2014-1-8,21.0,18.7,17.0,-99.9,-99.9,-99.9,0,0,100,0.00,40.00,0,-999,0,0.00
2014-1-9,25.0,17.5,6.0,-99.9,-99.9,-99.9,0,0,100,0.00,40.00,0,-999,0,0.00
2014-1-10,36.0,32.3,26.0,-99.9,-99.9,-99.9,0,0,100,0.00,40.00,0,-999,0,0.00
2014-1-11,43.0,32.4,27.0,-99.9,-99.9,-99.9,0,0,100,0.00,40.00,0,-999,0,0.00
2014-1-12,49.0,37.0,29.0,-99.9,-99.9,-99.9,0,0,100,0.00,40.00,0,-999,0,0.00
2014-1-13,43.0,36.8,33.0,-99.9,-99.9,-99.9,0,0,100,0.00,40.00,0,-999,0,0.00
2014-1-14,42.0,34.7,20.0,-99.9,-99.9,-99.9,0,0,100,0.00,40.00,0,-999,0,0.00
2014-1-15,37.0,23.5,14.0,-99.9,-99.9,-99.9,0,0,100,0.00,40.00,0,-999,0,0.00
2014-1-16,41.0,35.0,20.0,-99.9,-99.9,-99.9,0,0,100,0.00,40.00,0,-999,0,0.00
2014-1-17,34.0,21.3,14.0,-99.9,-99.9,-99.9,0,0,100,0.00,40.00,0,-999,0,0.00
2014-1-18,43.0,31.7,17.0,-99.9,-99.9,-99.9,0,0,100,0.00,40.00,0,-999,0,0.00
2014-1-19,57.0,28.9,15.0,-99.9,-99.9,-99.9,0,0,100,0.00,40.00,0,-999,0,0.00
2014-1-20,48.0,31.1,14.0,-99.9,-99.9,-99.9,0,0,100,0.00,40.00,0,-999,0,0.00
2014-1-21,21.0,12.9,3.0,-99.9,-99.9,-99.9,0,0,100,0.00,40.00,0,-999,0,0.00
2014-1-22,32.0,23.6,1.0,-99.9,-99.9,-99.9,0,0,100,0.00,40.00,0,-999,0,0.00
2014-1-23,14.0,5.7,-2.0,-99.9,-99.9,-99.9,0,0,100,0.00,40.00,0,-999,0,0.00
2014-1-24,51.0,29.9,9.0,-99.9,-99.9,-99.9,0,0,100,0.00,40.00,0,-999,0,0.00
2014-1-25,43.0,36.9,29.0,-99.9,-99.9,-99.9,0,0,100,0.00,40.00,0,-999,0,0.00
2014-1-26,52.0,41.1,11.0,-99.9,-99.9,-99.9,0,0,100,0.00,40.00,0,-999,0,0.00
2014-1-27,12.0,6.1,1.0,-99.9,-99.9,-99.9,0,0,100,0.00,40.00,0,-999,0,0.00
2014-1-28,22.0,7.9,-5.0,-99.9,-99.9,-99.9,0,0,100,0.00,40.00,0,-999,0,0.00
2014-1-29,44.0,20.3,1.0,-99.9,-99.9,-99.9,0,0,100,0.00,40.00,0,-999,0,0.00
2014-1-30,40.0,34.0,27.0,-99.9,-99.9,-99.9,0,0,100,0.00,40.00,0,-999,0,0.00
2014-1-31,23.0,18.4,15.0,-99.9,-99.9,-99.9,0,0,100,0.00,40.00,0,-999,0,0.00
2014-2-1,26.0,21.0,18.0,-99.9,-99.9,-99.9,0,0,100,0.00,40.00,0,-999,0,0.00
2014-2-2,18.0,8.4,-4.0,-99.9,-99.9,-99.9,0,0,100,0.00,40.00,0,-999,0,0.00
2014-2-3,27.0,15.8,1.0,-99.9,-99.9,-99.9,0,0,100,0.00,40.00,0,-999,0,0.00
2014-2-4,25.0,19.1,11.0,-99.9,-99.9,-99.9,0,0,100,0.00,40.00,0,-999,0,0.00
2014-2-5,8.0,4.6,2.0,-99.9,-99.9,-99.9,0,0,100,0.00,40.00,0,-999,0,0.00
2014-2-6,6.0,-0.4,-7.0,-99.9,-99.9,-99.9,0,0,100,0.00,40.00,0,-999,0,0.00
2014-2-7,14.0,12.5,7.0,-99.9,-99.9,-99.9,0,0,100,0.00,40.00,0,-999,0,0.00
2014-2-8,27.0,20.9,14.0,-99.9,-99.9,-99.9,0,0,100,0.00,40.00,0,-999,0,0.00
2014-2-9,21.0,13.4,10.0,-99.9,-99.9,-99.9,0,0,100,0.00,40.00,0,-999,0,0.00
2014-2-10,13.0,7.5,-4.0,-99.9,-99.9,-99.9,0,0,100,0.00,40.00,0,-999,0,0.00
2014-2-11,19.0,12.8,4.0,-99.9,-99.9,-99.9,0,0,100,0.00,40.00,0,-999,0,0.00
2014-2-12,28.0,23.8,15.0,-99.9,-99.9,-99.9,0,0,100,0.00,40.00,0,-999,0,0.00
2014-2-13,49.0,34.9,23.0,-99.9,-99.9,-99.9,0,0,100,0.00,40.00,0,-999,0,0.00
2014-2-14,30.0,25.2,20.0,-99.9,-99.9,-99.9,0,0,100,0.00,40.00,0,-999,0,0.00
2014-2-15,44.0,33.3,20.0,-99.9,-99.9,-99.9,0,0,100,0.00,40.00,0,-999,0,0.00
2014-2-16,35.0,30.3,27.0,-99.9,-99.9,-99.9,0,0,100,0.00,40.00,0,-999,0,0.00
2014-2-17,53.0,39.0,30.0,-99.9,-99.9,-99.9,0,0,100,0.00,40.00,0,-999,0,0.00
2014-2-18,62.0,48.3,35.0,-99.9,-99.9,-99.9,0,0,100,0.00,40.00,0,-999,0,0.00
2014-2-19,49.0,37.3,25.0,-99.9,-99.9,-99.9,0,0,100,0.00,40.00,0,-999,0,0.00
2014-2-20,40.0,35.4,28.0,-99.9,-99.9,-99.9,0,0,100,0.00,40.00,0,-999,0,0.00
2014-2-21,49.0,36.9,27.0,-99.9,-99.9,-99.9,0,0,100,0.00,40.00,0,-999,0,0.00
2014-2-22,41.0,34.9,30.0,-99.9,-99.9,-99.9,0,0,100,0.00,40.00,0,-999,0,0.00
2014-2-23,29.0,26.4,24.0,-99.9,-99.9,-99.9,0,0,100,0.00,40.00,0,-999,0,0.00
2014-2-24,29.0,26.9,25.0,-99.9,-99.9,-99.9,0,0,100,0.00,40.00,0,-999,0,0.00
2014-2-25,24.0,16.8,13.0,-99.9,-99.9,-99.9,0,0,100,0.00,40.00,0,-999,0,0.00
2014-2-26,29.0,20.4,3.0,-99.9,-99.9,-99.9,0,0,100,0.00,40.00,0,-999,0,0.00
2014-2-27,25.0,18.8,10.0,-99.9,-99.9,-99.9,0,0,100,0.00,40.00,0,-999,0,0.00
2014-2-28,51.0,27.8,18.0,-99.9,-99.9,-99.9,0,0,100,0.00,40.00,0,-999,0,0.00
2014-3-1,21.0,11.5,1.0,-99.9,-99.9,-99.9,0,0,100,0.00,40.00,0,-999,0,0.00
2014-3-2,5.0,2.6,1.0,-99.9,-99.9,-99.9,0,0,100,0.00,40.00,0,-999,0,0.00
2014-3-3,18.0,10.8,-6.0,-99.9,-99.9,-99.9,0,0,100,0.00,40.00,0,-999,0,0.00
2014-3-4,37.0,24.2,10.0,-99.9,-99.9,-99.9,0,0,100,0.00,40.00,0,-999,0,0.00
2014-3-5,32.0,28.7,25.0,-99.9,-99.9,-99.9,0,0,100,0.00,40.00,0,-999,0,0.00
2014-3-6,43.0,31.1,24.0,-99.9,-99.9,-99.9,0,0,100,0.00,40.00,0,-999,0,0.00
2014-3-7,47.0,36.7,29.0,-99.9,-99.9,-99.9,0,0,100,0.00,40.00,0,-999,0,0.00
2014-3-8,40.0,30.1,22.0,-99.9,-99.9,-99.9,0,0,100,0.00,40.00,0,-999,0,0.00
2014-3-9,65.0,43.6,22.0,-99.9,-99.9,-99.9,0,0,100,0.00,40.00,0,-999,0,0.00
2014-3-10,75.0,56.7,36.0,-99.9,-99.9,-99.9,0,0,100,0.00,40.00,0,-999,0,0.00
2014-3-11,51.0,41.7,35.0,-99.9,-99.9,-99.9,0,0,100,0.00,40.00,0,-999,0,0.00
2014-3-12,53.0,37.9,29.0,-99.9,-99.9,-99.9,0,0,100,0.00,40.00,0,-999,0,0.00
2014-3-13,67.0,49.9,25.0,-99.9,-99.9,-99.9,0,0,100,0.00,40.00,0,-999,0,0.00
2014-3-14,59.0,51.5,40.0,-99.9,-99.9,-99.9,0,0,100,0.00,40.00,0,-999,0,0.00
2014-3-15,75.0,63.0,29.0,-99.9,-99.9,-99.9,0,0,100,0.00,40.00,0,-999,0,0.00
2014-3-16,40.0,32.1,25.0,-99.9,-99.9,-99.9,0,0,100,0.00,40.00,0,-999,0,0.00
2014-3-17,57.0,36.2,19.0,-99.9,-99.9,-99.9,0,0,100,0.00,40.00,0,-999,0,0.00
2014-3-18,58.0,47.7,39.0,-99.9,-99.9,-99.9,0,0,100,0.00,40.00,0,-999,0,0.00
2014-3-19,53.0,48.2,43.0,-99.9,-99.9,-99.9,0,0,100,0.00,40.00,0,-999,0,0.00
2014-3-20,67.0,49.4,25.0,-99.9,-99.9,-99.9,0,0,100,0.00,40.00,0,-999,0,0.00
2014-3-21,55.0,44.9,38.0,-99.9,-99.9,-99.9,0,0,100,0.00,40.00,0,-999,0,0.00
2014-3-22,36.0,29.6,25.0,-99.9,-99.9,-99.9,0,0,100,0.00,40.00,0,-999,0,0.00
2014-3-23,41.0,30.6,13.0,-99.9,-99.9,-99.9,0,0,100,0.00,40.00,0,-999,0,0.00
2014-3-24,44.0,35.2,29.0,-99.9,-99.9,-99.9,0,0,100,0.00,40.00,0,-999,0,0.00
2014-3-25,40.0,29.9,21.0,-99.9,-99.9,-99.9,0,0,100,0.00,40.00,0,-999,0,0.00
2014-3-26,60.0,38.8,21.0,-99.9,-99.9,-99.9,0,0,100,0.00,40.00,0,-999,0,0.00
2014-3-27,64.0,45.7,36.0,-99.9,-99.9,-99.9,0,0,100,0.00,40.00,0,-999,0,0.00
2014-3-28,52.0,37.4,30.0,-99.9,-99.9,-99.9,0,0,100,0.00,40.00,0,-999,0,0.00
2014-3-29,49.0,33.1,21.0,-99.9,-99.9,-99.9,0,0,100,0.00,40.00,0,-999,0,0.00
2014-3-30,77.0,58.8,43.0,-99.9,-99.9,-99.9,0,0,100,0.00,40.00,0,-999,0,0.00
2014-3-31,74.0,58.5,30.0,-99.9,-99.9,-99.9,0,0,100,0.00,40.00,0,-999,0,0.00
2014-4-1,51.0,36.5,23.0,-99.9,-99.9,-99.9,0,0,100,0.00,40.00,0,-999,0,0.00
2014-4-2,43.0,41.3,38.0,-99.9,-99.9,-99.9,0,0,100,0.00,40.00,0,-999,0,0.00
2014-4-3,43.0,41.1,34.0,-99.9,-99.9,-99.9,0,0,100,0.00,40.00,0,-999,0,0.00
2014-4-4,43.0,37.5,34.0,-99.9,-99.9,-99.9,0,0,100,0.00,40.00,0,-999,0,0.00
2014-4-5,62.0,46.1,22.0,-99.9,-99.9,-99.9,0,0,100,0.00,40.00,0,-999,0,0.00
2014-4-6,62.0,49.9,45.0,-99.9,-99.9,-99.9,0,0,100,0.00,40.00,0,-999,0,0.00
2014-4-7,65.0,50.5,41.0,-99.9,-99.9,-99.9,0,0,100,0.00,40.00,0,-999,0,0.00
2014-4-8,58.0,50.2,41.0,-99.9,-99.9,-99.9,0,0,100,0.00,40.00,0,-999,0,0.00
2014-4-9,83.0,57.8,27.0,-99.9,-99.9,-99.9,0,0,100,0.00,40.00,0,-999,0,0.00
2014-4-10,66.0,61.1,58.0,-99.9,-99.9,-99.9,0,0,100,0.00,40.00,0,-999,0,0.00
2014-4-11,80.0,62.5,38.0,-99.9,-99.9,-99.9,0,0,100,0.00,40.00,0,-999,0,0.00
2014-4-12,85.0,70.5,53.0,-99.9,-99.9,-99.9,0,0,100,0.00,40.00,0,-999,0,0.00
2014-4-13,62.0,44.7,30.0,-99.9,-99.9,-99.9,0,0,100,0.00,40.00,0,-999,0,0.00
2014-4-14,41.0,32.7,29.0,-99.9,-99.9,-99.9,0,0,100,0.00,40.00,0,-999,0,0.00
2014-4-15,56.0,40.5,22.0,-99.9,-99.9,-99.9,0,0,100,0.00,40.00,0,-999,0,0.00
2014-4-16,70.0,55.7,39.0,-99.9,-99.9,-99.9,0,0,100,0.00,40.00,0,-999,0,0.00
2014-4-17,58.0,38.5,32.0,-99.9,-99.9,-99.9,0,0,100,0.00,40.00,0,-999,0,0.00
2014-4-18,66.0,44.1,27.0,-99.9,-99.9,-99.9,0,0,100,0.00,40.00,0,-999,0,0.00
2014-4-19,81.0,63.2,49.0,-99.9,-99.9,-99.9,0,0,100,0.00,40.00,0,-999,0,0.00
2014-4-20,86.0,73.7,62.0,-99.9,-99.9,-99.9,0,0,100,0.00,40.00,0,-999,0,0.00
2014-4-21,75.0,64.3,57.0,-99.9,-99.9,-99.9,0,0,100,0.00,40.00,0,-999,0,0.00
2014-4-22,74.0,59.5,47.0,-99.9,-99.9,-99.9,0,0,100,0.00,40.00,0,-999,0,0.00
2014-4-23,69.0,56.2,49.0,-99.9,-99.9,-99.9,0,0,100,0.00,40.00,0,-999,0,0.00
2014-4-24,62.0,55.8,49.0,-99.9,-99.9,-99.9,0,0,100,0.00,40.00,0,-999,0,0.00
2014-4-25,80.0,58.4,36.0,-99.9,-99.9,-99.9,0,0,100,0.00,40.00,0,-999,0,0.00
2014-4-26,78.0,65.9,50.0,-99.9,-99.9,-99.9,0,0,100,0.00,40.00,0,-999,0,0.00
2014-4-27,69.0,64.2,60.0,-99.9,-99.9,-99.9,0,0,100,0.00,40.00,0,-999,0,0.00
2014-4-28,62.0,54.9,51.0,-99.9,-99.9,-99.9,0,0,100,0.00,40.00,0,-999,0,0.00
2014-4-29,51.0,44.8,42.0,-99.9,-99.9,-99.9,0,0,100,0.00,40.00,0,-999,0,0.00
2014-4-30,47.0,44.2,38.0,-99.9,-99.9,-99.9,0,0,100,0.00,40.00,0,-999,0,0.00
2014-5-1,50.0,46.0,42.0,-99.9,-99.9,-99.9,0,0,100,0.00,40.00,0,-999,0,0.00
2014-5-2,72.0,59.2,38.0,-99.9,-99.9,-99.9,0,0,100,0.00,40.00,0,-999,0,0.00
2014-5-3,78.0,62.7,44.0,-99.9,-99.9,-99.9,0,0,100,0.00,40.00,0,-999,0,0.00
2014-5-4,76.0,64.6,53.0,-99.9,-99.9,-99.9,0,0,100,0.00,40.00,0,-999,0,0.00
2014-5-5,75.0,62.7,50.0,-99.9,-99.9,-99.9,0,0,100,0.00,40.00,0,-999,0,0.00
2014-5-6,87.0,68.8,56.0,-99.9,-99.9,-99.9,0,0,100,0.00,40.00,0,-999,0,0.00
2014-5-13,54.0,52.8,52.0,-99.9,-99.9,-99.9,0,0,100,0.00,40.00,0,-999,0,0.00
2014-5-14,67.0,52.5,39.0,-99.9,-99.9,-99.9,0,0,100,0.00,40.00,0,-999,0,0.00
2014-5-15,55.0,47.8,40.0,-99.9,-99.9,-99.9,0,0,100,0.00,40.00,0,-999,0,0.00
2014-5-16,56.0,45.8,30.0,-99.9,-99.9,-99.9,0,0,100,0.00,40.00,0,-999,0,0.00
2014-5-17,69.0,55.7,34.0,-99.9,-99.9,-99.9,0,0,100,0.00,40.00,0,-999,0,0.00
2014-5-18,73.0,53.1,35.0,-99.9,-99.9,-99.9,0,0,100,0.00,40.00,0,-999,0,0.00
2014-5-19,84.0,70.9,59.0,-99.9,-99.9,-99.9,0,0,100,0.00,40.00,0,-999,0,0.00
2014-5-20,91.0,78.1,64.0,-99.9,-99.9,-99.9,0,0,100,0.00,40.00,0,-999,0,0.00
2014-5-21,88.0,77.2,68.0,-99.9,-99.9,-99.9,0,0,100,0.00,40.00,0,-999,0,0.00
2014-5-22,73.0,65.0,54.0,-99.9,-99.9,-99.9,0,0,100,0.00,40.00,0,-999,0,0.00
2014-5-23,82.0,69.6,55.0,-99.9,-99.9,-99.9,0,0,100,0.00,40.00,0,-999,0,0.00
2014-5-24,73.0,68.2,62.0,-99.9,-99.9,-99.9,0,0,100,0.00,40.00,0,-999,0,0.00
2014-5-25,85.0,71.2,65.0,-99.9,-99.9,-99.9,0,0,100,0.00,40.00,0,-999,0,0.00
2014-5-26,86.0,75.4,64.0,-99.9,-99.9,-99.9,0,0,100,0.00,40.00,0,-999,0,0.00
2014-5-27,88.0,74.8,62.0,-99.9,-99.9,-99.9,0,0,100,0.00,40.00,0,-999,0,0.00
2014-5-28,87.0,81.2,69.0,-99.9,-99.9,-99.9,0,0,100,0.00,40.00,0,-999,0,0.00
2014-5-29,85.0,74.9,64.0,-99.9,-99.9,-99.9,0,0,100,0.00,40.00,0,-999,0,0.00
2014-5-30,86.0,75.4,68.0,-99.9,-99.9,-99.9,0,0,100,0.00,40.00,0,-999,0,0.00
2014-5-31,90.0,76.8,67.0,-99.9,-99.9,-99.9,0,0,100,0.00,40.00,0,-999,0,0.00
2014-6-1,87.0,76.2,64.0,-99.9,-99.9,-99.9,0,0,100,0.00,40.00,0,-999,0,0.00
2014-6-2,89.0,73.8,62.0,-99.9,-99.9,-99.9,0,0,100,0.00,40.00,0,-999,0,0.00
2014-6-3,87.0,75.3,63.0,-99.9,-99.9,-99.9,0,0,100,0.00,40.00,0,-999,0,0.00
2014-6-4,79.0,70.5,63.0,-99.9,-99.9,-99.9,0,0,100,0.00,40.00,0,-999,0,0.00
2014-6-5,87.0,71.7,65.0,-99.9,-99.9,-99.9,0,0,100,0.00,40.00,0,-999,0,0.00
2014-6-6,87.0,73.4,62.0,-99.9,-99.9,-99.9,0,0,100,0.00,40.00,0,-999,0,0.00
2014-6-7,75.0,69.0,62.0,-99.9,-99.9,-99.9,0,0,100,0.00,40.00,0,-999,0,0.00
2014-6-8,73.0,65.4,57.0,-99.9,-99.9,-99.9,0,0,100,0.00,40.00,0,-999,0,0.00
2014-6-9,73.0,67.4,62.0,-99.9,-99.9,-99.9,0,0,100,0.00,40.00,0,-999,0,0.00
2014-6-10,77.0,69.9,62.0,-99.9,-99.9,-99.9,0,0,100,0.00,40.00,0,-999,0,0.00
2014-6-11,83.0,65.0,53.0,-99.9,-99.9,-99.9,0,0,100,0.00,40.00,0,-999,0,0.00
2014-6-12,75.0,68.7,59.0,-99.9,-99.9,-99.9,0,0,100,0.00,40.00,0,-999,0,0.00
2014-6-13,80.0,66.7,47.0,-99.9,-99.9,-99.9,0,0,100,0.00,40.00,0,-999,0,0.00
2014-6-14,83.0,73.7,58.0,-99.9,-99.9,-99.9,0,0,100,0.00,40.00,0,-999,0,0.00
2014-6-15,87.0,73.3,62.0,-99.9,-99.9,-99.9,0,0,100,0.00,40.00,0,-999,0,0.00
2014-6-16,87.0,73.4,62.0,-99.9,-99.9,-99.9,0,0,100,0.00,40.00,0,-999,0,0.00
2014-6-17,90.0,83.5,73.0,-99.9,-99.9,-99.9,0,0,100,0.00,40.00,0,-999,0,0.00
2014-6-18,91.0,82.1,76.0,-99.9,-99.9,-99.9,0,0,100,0.00,40.00,0,-999,0,0.00
2014-6-19,86.0,77.3,67.0,-99.9,-99.9,-99.9,0,0,100,0.00,40.00,0,-999,0,0.00
2014-6-20,93.0,79.3,65.0,-99.9,-99.9,-99.9,0,0,100,0.00,40.00,0,-999,0,0.00
2014-6-21,90.0,78.0,64.0,-99.9,-99.9,-99.9,0,0,100,0.00,40.00,0,-999,0,0.00
2014-6-22,80.0,74.9,69.0,-99.9,-99.9,-99.9,0,0,100,0.00,40.00,0,-999,0,0.00
2014-6-23,78.0,69.6,67.0,-99.9,-99.9,-99.9,0,0,100,0.00,40.00,0,-999,0,0.00
2014-6-24,80.0,73.2,70.0,-99.9,-99.9,-99.9,0,0,100,0.00,40.00,0,-999,0,0.00
2014-6-25,87.0,78.0,65.0,-99.9,-99.9,-99.9,0,0,100,0.00,40.00,0,-999,0,0.00
2014-6-26,88.0,75.2,69.0,-99.9,-99.9,-99.9,0,0,100,0.00,40.00,0,-999,0,0.00
2014-6-27,80.0,76.0,73.0,-99.9,-99.9,-99.9,0,0,100,0.00,40.00,0,-999,0,0.00
2014-6-28,83.0,77.7,71.0,-99.9,-99.9,-99.9,0,0,100,0.00,40.00,0,-999,0,0.00
2014-6-29,88.0,75.0,67.0,-99.9,-99.9,-99.9,0,0,100,0.00,40.00,0,-999,0,0.00
2014-6-30,87.0,79.0,76.0,-99.9,-99.9,-99.9,0,0,100,0.00,40.00,0,-999,0,0.00
2014-7-1,79.0,73.8,64.0,-99.9,-99.9,-99.9,0,0,100,0.00,40.00,0,-999,0,0.00
2014-7-2,68.0,58.3,54.0,-99.9,-99.9,-99.9,0,0,100,0.00,40.00,0,-999,0,0.00
2014-7-3,83.0,67.0,50.0,-99.9,-99.9,-99.9,0,0,100,0.00,40.00,0,-999,0,0.00
2014-7-4,87.0,68.3,56.0,-99.9,-99.9,-99.9,0,0,100,0.00,40.00,0,-999,0,0.00
2014-7-5,87.0,74.2,68.0,-99.9,-99.9,-99.9,0,0,100,0.00,40.00,0,-999,0,0.00
2014-7-6,94.0,82.7,73.0,-99.9,-99.9,-99.9,0,0,100,0.00,40.00,0,-999,0,0.00
2014-7-7,96.0,84.0,68.0,-99.9,-99.9,-99.9,0,0,100,0.00,40.00,0,-999,0,0.00
2014-7-8,78.0,77.0,76.0,-99.9,-99.9,-99.9,0,0,100,0.00,40.00,0,-999,0,0.00
2014-7-9,89.0,71.2,58.0,-99.9,-99.9,-99.9,0,0,100,0.00,40.00,0,-999,0,0.00
2014-7-10,88.0,82.0,68.0,-99.9,0.0,200.0,0,0,100,0.00,40.00,0,0,0,0.00
2014-7-11,92.0,78.1,67.0,-99.9,0.0,200.0,0,0,100,0.00,40.00,0,0,0,0.00
2014-7-12,97.0,84.6,73.0,-99.9,0.0,200.0,0,0,100,0.00,40.00,0,0,0,0.00
2014-7-13,88.0,79.8,70.0,-99.9,0.0,200.0,0,0,100,0.00,40.00,0,0,0,0.00
2014-7-14,76.0,69.7,64.0,-99.9,0.0,200.0,0,0,100,0.00,40.00,0,0,0,0.00
2014-7-15,72.0,64.2,54.0,-99.9,0.0,200.0,0,0,100,0.00,40.00,0,0,0,0.00
2014-7-16,81.0,68.2,53.0,-99.9,0.0,200.0,0,0,100,0.00,40.00,0,0,0,0.00
2014-7-17,78.0,72.3,64.0,-99.9,0.0,200.0,0,0,100,0.00,40.00,0,0,0,0.00
2014-7-18,79.0,69.2,54.0,-99.9,0.0,200.0,0,0,100,0.00,40.00,0,0,0,0.00
2014-7-19,83.0,78.3,72.0,-99.9,0.0,200.0,0,0,100,0.00,40.00,0,0,0,0.00
2014-7-20,91.0,75.9,62.0,-99.9,0.0,200.0,0,0,100,0.00,40.00,0,0,0,0.00
2014-7-21,98.0,84.9,73.0,-99.9,0.0,200.0,0,0,100,0.00,40.00,0,0,0,0.00
2014-7-22,97.0,83.3,76.0,-99.9,0.0,200.0,0,0,100,0.00,40.00,0,0,0,0.00
2014-7-23,87.0,74.9,65.0,-99.9,0.0,200.0,0,0,100,0.00,40.00,0,0,0,0.00
2014-7-24,88.0,84.0,77.0,-99.9,0.0,200.0,0,0,100,0.00,40.00,0,0,0,0.00
2014-7-25,102.0,86.8,71.0,-99.9,0.0,200.0,0,0,100,0.00,40.00,0,0,0,0.00
2014-7-26,100.0,86.1,74.0,-99.9,0.0,200.0,0,0,100,0.00,40.00,0,0,0,0.00
2014-7-27,83.0,76.5,61.0,-99.9,0.0,200.0,0,0,100,0.00,40.00,0,0,0,0.00
2014-7-28,78.0,71.9,57.0,-99.9,0.0,200.0,0,0,100,0.00,40.00,0,0,0,0.00
2014-7-29,79.0,64.5,54.0,-99.9,0.0,200.0,0,0,100,0.00,40.00,0,0,0,0.00
2014-7-30,82.0,73.3,61.0,-99.9,0.0,200.0,0,0,100,0.00,40.00,0,0,0,0.00
2014-7-31,87.0,69.6,51.0,-99.9,0.0,200.0,0,0,100,0.00,40.00,0,0,0,0.00
2014-8-1,88.0,80.6,65.0,-99.9,0.0,200.0,0,0,100,0.00,40.00,0,0,0,0.00
2014-8-2,91.0,78.4,63.0,-99.9,0.0,200.0,0,0,100,0.00,40.00,0,0,0,0.00
2014-8-3,92.0,82.1,65.0,-99.9,0.0,200.0,0,0,100,0.00,40.00,0,0,0,0.00
2014-8-4,87.0,74.7,64.0,-99.9,0.0,200.0,0,0,100,0.00,40.00,0,0,0,0.00
2014-8-5,94.0,85.5,68.0,-99.9,0.0,200.0,0,0,100,0.00,40.00,0,0,0,0.00
2014-8-6,84.0,79.0,75.0,-99.9,0.0,200.0,0,0,100,0.00,40.00,0,0,0,0.00
2014-8-7,83.0,75.0,70.0,-99.9,0.0,200.0,0,0,100,0.00,40.00,0,0,0,0.00
2014-8-8,81.0,74.8,69.0,-99.9,0.0,200.0,0,0,100,0.00,40.00,0,0,0,0.00
2014-8-9,87.0,76.6,68.0,-99.9,0.0,200.0,0,0,100,0.00,40.00,0,0,0,0.00
2014-8-10,80.0,74.1,68.0,-99.9,0.0,200.0,0,0,100,0.00,40.00,0,0,0,0.00
2014-8-11,78.0,74.0,71.0,-99.9,0.0,200.0,0,0,100,0.00,40.00,0,0,0,0.00
2014-8-12,80.0,67.7,54.0,-99.9,0.0,200.0,0,0,100,0.00,40.00,0,0,0,0.00
2014-8-13,76.0,66.0,61.0,-99.9,0.0,200.0,0,0,100,0.00,40.00,0,0,0,0.00
2014-8-14,87.0,66.6,55.0,-99.9,0.0,200.0,0,0,100,0.00,40.00,0,0,0,0.00
2014-8-15,76.0,71.8,70.0,-99.9,0.0,200.0,0,0,100,0.00,40.00,0,0,0,0.00
2014-8-16,81.0,73.5,69.0,-99.9,0.0,200.0,0,0,100,0.00,40.00,0,0,0,0.00
2014-8-17,90.0,72.1,62.0,-99.9,0.0,200.0,0,0,100,0.00,40.00,0,0,0,0.00
2014-8-18,90.0,82.1,69.0,-99.9,0.0,200.0,0,0,100,0.00,40.00,0,0,0,0.00
2014-8-19,94.0,83.5,70.0,-99.9,0.0,200.0,0,0,100,0.00,40.00,0,0,0,0.00
2014-8-20,94.0,82.6,71.0,-99.9,0.0,200.0,0,0,100,0.00,40.00,0,0,0,0.00
2014-8-21,95.0,86.2,78.0,-99.9,0.0,200.0,0,0,100,0.00,40.00,0,0,0,0.00
2014-8-22,80.0,78.2,76.0,-99.9,0.0,200.0,0,0,100,0.00,40.00,0,0,0,0.00
2014-8-23,94.0,84.1,72.0,-99.9,0.0,200.0,0,0,100,0.00,40.00,0,0,0,0.00
2014-8-24,96.0,83.1,74.0,-99.9,0.0,200.0,0,0,100,0.00,40.00,0,0,0,0.00
2014-8-25,87.0,79.1,70.0,-99.9,0.0,200.0,0,0,100,0.00,40.00,0,0,0,0.00
2014-8-26,84.0,74.2,67.0,-99.9,0.0,200.0,0,0,100,0.00,40.00,0,0,0,0.00
2014-8-27,81.0,74.4,70.0,-99.9,0.0,200.0,0,0,100,0.00,40.00,0,0,0,0.00
2014-8-28,86.0,78.8,71.0,-99.9,0.0,200.0,0,0,100,0.00,40.00,0,0,0,0.00
2014-8-29,80.0,73.8,69.0,-99.9,0.0,200.0,0,0,100,0.00,40.00,0,0,0,0.00
2014-8-30,90.0,75.7,62.0,-99.9,0.0,200.0,0,0,100,0.00,40.00,0,0,0,0.00
2014-8-31,91.0,79.6,68.0,-99.9,0.0,200.0,0,0,100,0.00,40.00,0,0,0,0.00
2014-9-1,79.0,71.1,66.0,-99.9,0.0,200.0,0,0,100,0.00,40.00,0,0,0,0.00
2014-9-2,88.0,70.8,60.0,-99.9,0.0,200.0,0,0,100,0.00,40.00,0,0,0,0.00
2014-9-3,90.0,77.7,66.0,-99.9,0.0,200.0,0,0,100,0.00,40.00,0,0,0,0.00
2014-9-4,96.0,84.2,76.0,-99.9,0.0,200.0,0,0,100,0.00,40.00,0,0,0,0.00
2014-9-5,76.0,65.0,61.0,-99.9,0.0,200.0,0,0,100,0.00,40.00,0,0,0,0.00
2014-9-6,77.0,61.7,51.0,-99.9,0.0,200.0,0,0,100,0.00,40.00,0,0,0,0.00
2014-9-7,81.0,67.6,45.0,-99.9,0.0,200.0,0,0,100,0.00,40.00,0,0,0,0.00
2014-9-8,87.0,82.2,76.0,-99.9,0.0,200.0,0,0,100,0.00,40.00,0,0,0,0.00
2014-9-9,88.0,79.1,71.0,-99.9,0.0,200.0,0,0,100,0.00,40.00,0,0,0,0.00
2014-9-10,70.0,62.9,58.0,-99.9,0.0,200.0,0,0,100,0.00,40.00,0,0,0,0.00
2014-9-11,58.0,55.6,52.0,-99.9,0.0,200.0,0,0,100,0.00,40.00,0,0,0,0.00
2014-9-12,53.0,48.2,42.0,-99.9,0.0,200.0,0,0,100,0.00,40.00,0,0,0,0.00
2014-9-13,65.0,48.2,36.0,-99.9,0.0,200.0,0,0,100,0.00,40.00,0,0,0,0.00
2014-9-14,74.0,64.9,51.0,-99.9,0.0,200.0,0,0,100,0.00,40.00,0,0,0,0.00
2014-9-15,65.0,60.1,48.0,-99.9,0.0,200.0,0,0,100,0.00,40.00,0,0,0,0.00
2014-9-16,73.0,56.0,39.0,-99.9,0.0,200.0,0,0,100,0.00,40.00,0,0,0,0.00
2014-9-17,83.0,67.5,60.0,-99.9,0.0,200.0,0,0,100,0.00,40.00,0,0,0,0.00
2014-9-18,76.0,68.3,63.0,-99.9,0.0,200.0,0,0,100,0.00,40.00,0,0,0,0.00
2014-9-19,84.0,69.7,61.0,-99.9,0.0,200.0,0,0,100,0.00,40.00,0,0,0,0.00
2014-9-20,82.0,72.0,64.0,-99.9,0.0,200.0,0,0,100,0.00,40.00,0,0,0,0.00
2014-9-21,73.0,67.8,52.0,-99.9,0.0,200.0,0,0,100,0.00,40.00,0,0,0,0.00
2014-9-22,78.0,62.8,45.0,-99.9,0.0,200.0,0,0,100,0.00,40.00,0,0,0,0.00
2014-9-23,71.0,61.5,57.0,-99.9,0.0,200.0,0,0,100,0.00,40.00,0,0,0,0.00
2014-9-24,75.0,66.7,59.0,-99.9,0.0,200.0,0,0,100,0.00,40.00,0,0,0,0.00
2014-9-25,86.0,70.6,54.0,-99.9,0.0,200.0,0,0,100,0.00,40.00,0,0,0,0.00
2014-9-26,85.0,73.3,62.0,-99.9,0.0,200.0,0,0,100,0.00,40.00,0,0,0,0.00
2014-9-27,83.0,69.2,61.0,-99.9,0.0,200.0,0,0,100,0.00,40.00,0,0,0,0.00
2014-9-28,86.0,72.4,52.0,-99.9,0.0,200.0,0,0,100,0.00,40.00,0,0,0,0.00
2014-9-29,87.0,68.5,54.0,-99.9,0.0,200.0,0,0,100,0.00,40.00,0,0,0,0.00
2014-9-30,80.0,67.0,59.0,-99.9,0.0,200.0,0,0,100,0.00,40.00,0,0,0,0.00
2014-10-1,80.0,72.2,63.0,-99.9,0.0,200.0,0,0,100,0.00,40.00,0,0,0,0.00
2014-10-2,69.0,61.4,52.0,-99.9,0.0,200.0,0,0,100,0.00,40.00,0,0,0,0.00
2014-10-3,55.0,49.5,37.0,-99.9,0.0,200.0,0,0,100,0.00,40.00,0,0,0,0.00
2014-10-4,58.0,47.4,37.0,-99.9,0.0,200.0,0,0,100,0.00,40.00,0,0,0,0.00
2014-10-5,69.0,55.2,43.0,-99.9,0.0,200.0,0,0,100,0.00,40.00,0,0,0,0.00
2014-10-6,71.0,58.9,51.0,-99.9,0.0,200.0,0,0,100,0.00,40.00,0,0,0,0.00
2014-10-7,75.0,60.4,51.0,-99.9,0.0,200.0,0,0,100,0.00,40.00,0,0,0,0.00
2014-10-8,72.0,59.8,43.0,-99.9,0.0,200.0,0,0,100,0.00,40.00,0,0,0,0.00
2014-10-9,62.0,56.8,51.0,-99.9,0.0,200.0,0,0,100,0.00,40.00,0,0,0,0.00
2014-10-10,55.0,51.8,46.0,-99.9,0.0,200.0,0,0,100,0.00,40.00,0,0,0,0.00
2014-10-11,62.0,46.0,32.0,-99.9,0.0,200.0,0,0,100,0.00,40.00,0,0,0,0.00
2014-10-12,58.0,49.5,37.0,-99.9,0.0,200.0,0,0,100,0.00,40.00,0,0,0,0.00
2014-10-13,55.0,53.5,52.0,-99.9,0.0,200.0,0,0,100,0.00,40.00,0,0,0,0.00
2014-10-14,66.0,57.8,50.0,-99.9,0.0,200.0,0,0,100,0.00,40.00,0,0,0,0.00
2014-10-15,71.0,56.9,40.0,-99.9,0.0,200.0,0,0,100,0.00,40.00,0,0,0,0.00
2014-10-16,76.0,58.0,41.0,-99.9,0.0,200.0,0,0,100,0.00,40.00,0,0,0,0.00
2014-10-17,65.0,58.7,50.0,-99.9,0.0,200.0,0,0,100,0.00,40.00,0,0,0,0.00
2014-10-18,62.0,47.9,38.0,-99.9,0.0,200.0,0,0,100,0.00,40.00,0,0,0,0.00
2014-10-19,73.0,53.2,36.0,-99.9,0.0,200.0,0,0,100,0.00,40.00,0,0,0,0.00
2014-10-20,73.0,63.2,52.0,-99.9,0.0,200.0,0,0,100,0.00,40.00,0,0,0,0.00
2014-10-21,75.0,61.2,35.0,-99.9,0.0,200.0,0,0,100,0.00,40.00,0,0,0,0.00
2014-10-22,76.0,62.2,53.0,-99.9,0.0,200.0,0,0,100,0.00,40.00,0,0,0,0.00
2014-10-23,73.0,64.6,53.0,-99.9,0.0,200.0,0,0,100,0.00,40.00,0,0,0,0.00
2014-10-24,80.0,67.9,54.0,-99.9,0.0,200.0,0,0,100,0.00,40.00,0,0,0,0.00
2014-10-25,78.0,71.2,61.0,-99.9,0.0,200.0,0,0,100,0.00,40.00,0,0,0,0.00
2014-10-26,86.0,69.9,57.0,-99.9,0.0,200.0,0,0,100,0.00,40.00,0,0,0,0.00
2014-10-27,68.0,60.8,53.0,-99.9,0.0,200.0,0,0,100,0.00,40.00,0,0,0,0.00
2014-10-28,60.0,50.5,43.0,-99.9,0.0,200.0,0,0,100,0.00,40.00,0,0,0,0.00
2014-10-29,60.0,43.5,31.0,-99.9,0.0,200.0,0,0,100,0.00,40.00,0,0,0,0.00
2014-10-30,63.0,50.5,41.0,-99.9,0.0,200.0,0,0,100,0.00,40.00,0,0,0,0.00
2014-10-31,45.0,35.2,29.0,-99.9,0.0,200.0,0,0,100,0.00,40.00,0,0,0,0.00
2014-11-1,53.0,37.9,20.0,-99.9,0.0,200.0,0,0,100,0.00,40.00,0,0,0,0.00
2014-11-2,62.0,53.5,43.0,-99.9,0.0,200.0,0,0,100,0.00,40.00,0,0,0,0.00
2014-11-3,69.0,59.5,48.0,-99.9,0.0,200.0,0,0,100,0.00,40.00,0,0,0,0.00
2014-11-4,62.0,48.3,41.0,-99.9,0.0,200.0,0,0,100,0.00,40.00,0,0,0,0.00
2014-11-5,65.0,54.1,41.0,-99.9,0.0,200.0,0,0,100,0.00,40.00,0,0,0,0.00
2014-11-6,51.0,40.7,30.0,-99.9,0.0,200.0,0,0,100,0.00,40.00,0,0,0,0.00
2014-11-7,65.0,51.9,32.0,-99.9,0.0,200.0,0,0,100,0.00,40.00,0,0,0,0.00
2014-11-8,53.0,41.9,32.0,-99.9,0.0,200.0,0,0,100,0.00,40.00,0,0,0,0.00
2014-11-9,64.0,51.7,36.0,-99.9,0.0,200.0,0,0,100,0.00,40.00,0,0,0,0.00
2014-11-10,62.0,43.8,29.0,-99.9,0.0,200.0,0,0,100,0.00,40.00,0,0,0,0.00
2014-11-11,27.0,23.8,19.0,-99.9,0.0,200.0,0,0,100,0.00,40.00,0,0,0,0.00
2014-11-12,22.0,18.2,16.0,-99.9,0.0,200.0,0,0,100,0.00,40.00,0,0,0,0.00
2014-11-13,27.0,18.9,13.0,-99.9,0.0,200.0,0,0,100,0.00,40.00,0,0,0,0.00
2014-11-14,29.0,15.1,6.0,-99.9,0.0,200.0,0,0,100,0.00,40.00,0,0,0,0.00
2014-11-15,29.0,25.2,21.0,-99.9,0.0,200.0,0,0,100,0.00,40.00,0,0,0,0.00
2014-11-16,23.0,17.4,10.0,-99.9,0.0,200.0,0,0,100,0.00,40.00,0,0,0,0.00
2014-11-17,19.0,14.5,10.0,-99.9,0.0,200.0,0,0,100,0.00,40.00,0,0,0,0.00
2014-11-18,34.0,23.5,8.0,-99.9,0.0,200.0,0,0,100,0.00,40.00,0,0,0,0.00
2014-11-19,35.0,27.8,10.0,-99.9,0.0,200.0,0,0,100,0.00,40.00,0,0,0,0.00
2014-11-20,36.0,21.1,10.0,-99.9,0.0,200.0,0,0,100,0.00,40.00,0,0,0,0.00
2014-11-21,42.0,28.9,14.0,-99.9,0.0,200.0,0,0,100,0.00,40.00,0,0,0,0.00
2014-11-22,56.0,48.3,38.0,-99.9,0.0,200.0,0,0,100,0.00,40.00,0,0,0,0.00
2014-11-23,54.0,48.4,40.0,-99.9,0.0,200.0,0,0,100,0.00,40.00,0,0,0,0.00
2014-11-24,36.0,31.3,26.0,-99.9,0.0,200.0,0,0,100,0.00,40.00,0,0,0,0.00
2014-11-25,47.0,34.2,16.0,-99.9,0.0,200.0,0,0,100,0.00,40.00,0,0,0,0.00
2014-11-26,40.0,32.1,22.0,-99.9,0.0,200.0,0,0,100,0.00,40.00,0,0,0,0.00
2014-11-27,32.0,24.9,18.0,-99.9,0.0,200.0,0,0,100,0.00,40.00,0,0,0,0.00
2014-11-28,58.0,43.1,26.0,-99.9,0.0,200.0,0,0,100,0.00,40.00,0,0,0,0.00
2014-11-29,66.0,57.3,44.0,-99.9,0.0,200.0,0,0,100,0.00,40.00,0,0,0,0.00
2014-11-30,29.0,21.9,18.0,-99.9,0.0,200.0,0,0,100,0.00,40.00,0,0,0,0.00
2014-12-1,23.0,15.2,10.0,-99.9,0.0,200.0,0,0,100,0.00,40.00,0,0,0,0.00
2014-12-2,43.0,24.1,11.0,-99.9,0.0,200.0,0,0,100,0.00,40.00,0,0,0,0.00
2014-12-3,40.0,31.3,20.0,-99.9,0.0,200.0,0,0,100,0.00,40.00,0,0,0,0.00
2014-12-4,40.0,32.0,22.0,-99.9,0.0,200.0,0,0,100,0.00,40.00,0,0,0,0.00
2014-12-5,43.0,39.4,36.0,-99.9,0.0,200.0,0,0,100,0.00,40.00,0,0,0,0.00
2014-12-6,39.0,34.1,32.0,-99.9,0.0,200.0,0,0,100,0.00,40.00,0,0,0,0.00
2014-12-7,40.0,36.7,32.0,-99.9,0.0,200.0,0,0,100,0.00,40.00,0,0,0,0.00
2014-12-8,51.0,41.2,35.0,-99.9,0.0,200.0,0,0,100,0.00,40.00,0,0,0,0.00
2014-12-9,34.0,28.0,22.0,-99.9,0.0,200.0,0,0,100,0.00,40.00,0,0,0,0.00
2014-12-10,36.0,32.6,29.0,-99.9,0.0,200.0,0,0,100,0.00,40.00,0,0,0,0.00
2014-12-11,40.0,36.1,33.0,-99.9,0.0,200.0,0,0,100,0.00,40.00,0,0,0,0.00
2014-12-12,56.0,44.7,38.0,-99.9,0.0,200.0,0,0,100,0.00,40.00,0,0,0,0.00
2014-12-13,53.0,51.1,48.0,-99.9,0.0,200.0,0,0,100,0.00,40.00,0,0,0,0.00
2014-12-14,58.0,55.8,54.0,-99.9,0.0,200.0,0,0,100,0.00,40.00,0,0,0,0.00
2014-12-15,51.0,41.5,29.0,-99.9,0.0,200.0,0,0,100,0.00,40.00,0,0,0,0.00
2014-12-16,27.0,25.1,23.0,-99.9,0.0,200.0,0,0,100,0.00,40.00,0,0,0,0.00
2014-12-17,30.0,25.3,21.0,-99.9,0.0,200.0,0,0,100,0.00,40.00,0,0,0,0.00
2014-12-18,33.0,31.1,29.0,-99.9,0.0,200.0,0,0,100,0.00,40.00,0,0,0,0.00
2014-12-19,32.0,31.5,29.0,-99.9,0.0,200.0,0,0,100,0.00,40.00,0,0,0,0.00
2014-12-20,38.0,35.3,32.0,-99.9,0.0,200.0,0,0,100,0.00,40.00,0,0,0,0.00
2014-12-21,43.0,39.8,35.0,-99.9,0.0,200.0,0,0,100,0.00,40.00,0,0,0,0.00
2014-12-22,45.0,42.6,39.0,-99.9,0.0,200.0,0,0,100,0.00,40.00,0,0,0,0.00
2014-12-23,37.0,35.1,34.0,-99.9,0.0,200.0,0,0,100,0.00,40.00,0,0,0,0.00
2014-12-24,34.0,32.6,30.0,-99.9,0.0,200.0,0,0,100,0.00,40.00,0,0,0,0.00
2014-12-25,52.0,39.3,29.0,-99.9,0.0,200.0,0,0,100,0.00,40.00,0,0,0,0.00
2014-12-26,36.0,33.5,31.0,-99.9,0.0,200.0,0,0,100,0.00,40.00,0,0,0,0.00
2014-12-27,32.0,25.4,16.0,-99.9,0.0,200.0,0,0,100,0.00,40.00,0,0,0,0.00
2014-12-28,41.0,28.8,16.0,-99.9,0.0,200.0,0,0,100,0.00,40.00,0,0,0,0.00
2014-12-29,31.0,25.9,15.0,-99.9,0.0,200.0,0,0,100,0.00,40.00,0,0,0,0.00
2014-12-30,12.0,6.7,4.0,-99.9,0.0,200.0,0,0,100,0.00,40.00,0,0,0,0.00
2014-12-31,21.0,13.9,2.0,-99.9,0.0,200.0,0,0,100,0.00,40.00,0,0,0,0.00
2015-1-1,35.0,22.1,14.0,-99.9,0.0,200.0,0,0,100,0.00,40.00,0,0,0,0.00
2015-1-2,38.0,24.5,13.0,-99.9,0.0,200.0,0,0,100,0.00,40.00,0,0,0,0.00